Location: Maccacari
(45.1333°N, 11.1333°E)
Time: 14:15:11
(UTC+00:00)

S-56A Canister/Altair - Pass Details

Date: 21 January 2021
Orbit: 631 x 2501 km, 38.9° (Epoch: 01 March)

Event Time Altitude Azimuth Distance (km) Brightness Sun altitude
Rises 08:47:25 0° 266° (W) 3,623 10.7 15.6°
Reaches altitude 10° 08:50:55 10° 244° (WSW) 2,963 10.5 16.0°
Maximum altitude 08:55:01 16° 210° (SSW) 2,882 10.9 16.4°
Drops below altitude 10° 09:00:00 10° 177° (S) 3,729 12.2 17.0°
Sets 09:05:23 0° 159° (SSE) 5,138 13.3 17.5°
